Theta_e
340 340 340 339 339 341 342 343 344 343 341 340 341 340 339 337 337 335 336 339 341 345 348 356 354 353 352 351 348 347 347 349 347 345 344 342 341 336 335 333 332 331 331
338 337 336 334 334 335 338 340 341 341 340 340 339 339 339 339 337 336 337 338 341 347 350 349 352 354 352 351 346 348 346 343 342 342 344 344 342 340 336 335 333 332 332
338 336 335 335 336 336 336 337 338 339 339 338 337 338 338 338 337 338 339 339 340 345 348 349 350 350 349 347 346 345 343 341 342 341 341 342 342 341 339 337 335 333 333
335 336 336 335 336 338 337 335 336 335 335 335 335 336 336 337 337 337 338 336 336 338 339 346 348 347 348 347 344 346 346 332 332 332 335 337 340 341 339 337 336 334 335
333 332 332 331 333 332 332 334 335 333 333 334 332 334 334 334 334 336 336 336 336 337 336 337 340 341 341 342 337 338 336 334 333 332 331 334 337 340 338 337 336 335 334
334 331 330 329 331 330 330 331 331 333 331 331 331 333 332 333 335 334 335 336 335 334 335 335 335 336 338 339 337 335 334 331 331 331 336 337 338 337 335 334 332 330 329
332 331 330 328 329 328 328 330 330 331 330 328 329 329 330 331 331 333 334 333 333 334 335 334 334 334 336 338 336 335 333 333 330 331 336 336 334 333 332 330 328 326 323
331 332 329 328 326 327 330 329 329 328 329 330 329 326 322 324 325 328 329 329 328 330 330 331 333 333 335 332 332 334 335 336 335 333 333 333 332 329 326 325 324 322 321
332 333 331 329 328 326 328 329 329 329 327 328 330 328 316 317 317 319 322 325 326 328 329 331 330 330 329 327 331 332 336 335 334 332 331 330 329 326 325 324 323 323 322
333 334 332 333 334 331 329 331 333 330 329 327 326 329 326 323 317 314 319 321 320 322 326 324 323 324 325 324 327 331 334 334 334 333 332 329 328 327 326 325 324 323 323
333 334 330 328 327 328 330 332 332 329 331 330 326 324 322 319 320 316 314 316 314 314 313 316 317 317 320 319 319 325 332 331 331 331 331 331 329 328 327 326 325 324 324
325 326 327 325 327 326 326 329 331 331 330 330 328 325 321 318 316 316 315 314 312 311 311 311 312 313 314 314 317 321 324 327 327 327 328 328 329 328 328 328 327 326 326
322 322 323 322 324 324 325 325 325 327 327 326 325 322 321 319 319 318 316 313 312 310 309 309 309 310 313 314 318 321 322 321 322 322 322 324 326 328 327 327 327 327 327
322 322 322 321 323 324 323 322 322 322 323 323 322 322 322 320 320 317 315 310 307 307 307 307 307 307 310 311 313 312 310 315 315 315 316 317 318 318 319 321 325 325 325
322 322 322 320 323 320 319 319 319 319 319 319 319 318 320 318 316 315 314 312 309 305 306 307 308 307 307 306 310 305 305 311 311 311 311 312 314 315 315 316 316 316 317
321 320 320 320 320 319 319 319 318 318 317 317 314 311 309 308 306 306 306 307 308 308 305 306 304 303 304 303 306 304 306 307 307 307 307 308 309 310 312 314 316 316 317
317 319 319 316 311 309 310 312 313 316 313 310 309 307 305 305 302 301 301 300 300 304 304 304 304 301 302 301 302 303 305 303 303 304 306 306 307 307 308 310 312 312 314
308 309 309 308 308 309 310 310 307 306 305 303 303 302 300 299 297 298 298 297 297 298 298 298 296 298 298 300 300 300 300 301 301 302 305 305 305 306 306 308 310 311 311
304 305 305 306 307 308 309 307 305 304 301 300 299 298 298 297 295 295 296 295 295 296 295 294 294 296 297 297 297 298 299 299 300 302 302 304 305 306 307 307 310 310 309
301 302 303 304 304 306 308 306 305 303 302 301 300 299 298 297 296 295 295 294 294 293 293 292 293 293 294 296 296 295 295 297 297 300 303 303 304 306 308 308 309 309 308
299 300 299 300 300 302 306 306 304 302 300 297 297 298 298 300 301 299 296 294 294 292 292 291 291 291 292 293 293 296 293 296 297 301 300 300 301 305 307 308 309 308 306
297 297 296 297 297 300 302 303 301 298 296 294 293 293 294 295 296 299 300 298 296 294 292 293 291 291 292 293 294 295 294 293 292 301 298 298 303 305 304 305 305 303 303
296 295 295 295 295 297 298 298 297 295 293 291 291 291 292 293 293 293 294 296 296 297 297 295 293 293 294 295 296 295 295 295 295 299 298 296 303 301 302 302 302 301 301
295 294 294 294 294 296 297 297 296 294 293 293 292 291 291 293 295 292 292 293 294 294 295 296 296 296 297 299 297 297 297 297 299 301 298 294 301 300 300 300 300 300 300
293 293 293 293 293 295 296 295 294 294 293 293 293 294 293 293 295 293 293 292 294 295 298 299 299 299 299 298 299 300 297 296 295 298 302 299 300 300 300 299 300 300 299
293 293 292 291 294 294 296 296 295 294 293 293 294 294 295 295 295 295 293 292 293 295 297 298 298 299 299 300 300 300 300 296 296 296 302 298 300 299 297 299 298 298 298
Wind_Speed
5 3 4 2 3 2 4 4 6 6 8 9 9 9 10 10 10 6 5 16 17 18 19 16 17 19 20 20 20 21 23 24 22 21 21 22 21 21 20 18 18 17 16
9 8 6 5 4 3 3 5 6 7 7 7 8 10 12 9 9 9 6 7 18 18 20 19 19 21 22 21 19 21 21 18 17 19 20 22 22 21 21 20 20 19 17
5 5 4 3 3 4 5 5 8 5 5 5 9 7 8 9 8 9 7 6 8 17 19 19 20 20 20 20 20 20 20 20 19 18 18 15 21 21 21 21 20 20 19
8 1 2 3 5 2 2 3 5 7 7 6 6 6 6 7 8 8 6 5 5 4 6 14 18 20 20 20 19 22 18 5 10 9 11 18 16 21 21 22 21 20 20
6 7 7 7 6 5 5 3 4 5 5 4 5 5 6 6 6 7 10 10 9 8 5 13 19 19 17 15 8 9 13 13 13 16 16 17 18 18 21 20 19 15 13
13 13 10 11 6 7 7 2 6 5 4 4 5 5 5 6 7 8 9 7 8 8 8 10 7 8 17 14 14 14 13 14 17 18 17 18 14 12 12 12 11 10 9
10 8 12 5 7 7 7 8 3 4 6 4 2 3 5 7 8 7 7 5 7 7 8 8 6 5 7 15 15 15 16 19 15 15 13 13 15 16 15 14 12 11 10
9 10 11 11 3 5 1 4 3 4 6 6 4 1 2 1 3 6 4 5 10 7 8 8 6 6 5 3 7 17 19 18 17 16 15 14 14 13 13 13 13 13 11
10 12 11 10 10 5 5 6 5 8 10 5 10 2 1 4 1 0 3 2 3 3 4 5 4 3 5 5 8 13 20 18 17 17 16 17 16 16 17 16 15 15 14
7 7 7 6 7 5 8 11 10 13 9 7 2 6 1 2 3 1 1 0 2 2 3 2 3 4 5 4 9 14 16 18 20 21 20 19 18 18 17 16 15 14 14
6 8 5 5 5 5 9 11 10 9 8 5 4 3 2 1 1 2 1 0 3 4 4 5 2 1 4 5 4 6 16 17 18 17 18 19 18 19 18 19 19 18 17
6 6 6 4 6 6 7 7 7 5 4 3 3 3 3 3 3 2 2 1 2 3 5 5 6 5 4 2 3 7 9 14 14 17 20 20 19 19 20 21 21 22 20
4 6 5 5 4 5 6 4 4 2 3 2 3 2 2 3 3 2 3 2 2 2 3 4 4 4 5 5 8 12 11 12 6 5 6 2 10 19 20 20 22 24 23
6 6 5 4 7 5 3 3 1 2 2 2 4 3 3 3 3 2 3 3 1 2 2 3 4 5 5 5 9 12 6 10 11 11 10 8 8 5 4 4 11 18 19
7 7 5 3 3 4 5 5 3 3 3 2 4 4 4 4 3 3 2 2 2 2 3 2 1 4 4 5 6 5 4 9 10 10 8 6 5 5 4 5 4 4 6
9 7 5 4 3 4 5 5 3 2 3 3 3 7 7 6 7 6 4 4 2 1 2 1 2 2 3 4 7 6 6 8 10 11 10 10 10 10 10 11 11 12 16
10 6 3 6 7 6 6 5 4 1 5 7 8 10 10 8 7 6 6 5 6 3 2 2 1 4 4 6 6 6 6 6 6 12 13 13 12 12 12 12 13 13 14
10 10 8 8 7 8 7 8 10 10 10 10 10 11 10 8 9 8 6 7 6 5 3 1 3 2 3 3 3 5 5 5 6 10 14 15 15 16 15 13 11 13 13
12 12 11 9 8 8 8 9 10 12 12 13 11 10 10 8 8 6 6 4 4 4 4 3 2 2 1 2 3 3 4 4 5 10 10 11 13 15 15 14 11 10 10
14 14 13 12 12 9 7 7 11 10 9 12 12 10 8 7 6 5 5 3 4 4 4 3 2 2 1 2 2 2 5 3 5 3 6 8 11 10 7 9 9 10 9
12 12 14 14 14 11 7 7 8 9 9 10 11 10 8 8 8 5 3 3 4 3 3 3 3 0 1 2 2 3 2 5 2 2 3 3 4 4 6 9 11 12 10
11 12 13 12 13 9 19 18 13 10 11 11 8 7 5 9 9 9 10 7 5 4 3 2 1 1 2 1 1 3 2 2 3 0 3 3 3 5 5 5 11 10 10
10 13 12 12 12 11 20 19 18 9 8 9 8 7 7 6 6 5 7 8 6 4 2 1 2 2 1 1 2 3 2 2 2 3 2 3 2 3 4 4 10 9 7
11 10 11 11 10 11 16 15 15 9 8 8 8 7 5 5 8 7 5 4 3 3 2 2 4 5 5 4 4 3 3 3 3 2 0 2 2 2 1 2 10 11 8
9 9 8 10 10 11 16 12 8 6 6 6 5 4 7 6 8 7 5 5 4 2 3 5 4 3 2 4 5 2 2 3 2 1 2 2 1 1 1 3 5 14 13
8 7 8 9 12 9 15 14 8 4 6 5 6 7 11 8 8 7 4 4 5 5 5 4 2 3 3 2 3 3 2 2 2 2 4 4 3 2 1 1 4 5 5
Wind_Direction
234 239 260 268 260 250 243 250 244 240 237 237 240 234 238 236 236 233 238 241 244 244 245 235 217 213 209 205 205 210 214 217 216 217 217 212 206 199 211 213 208 210 212
351 351 351 342 322 298 266 241 240 242 239 228 240 239 243 242 237 230 222 230 248 236 234 233 235 228 221 213 221 227 227 220 220 228 222 217 210 202 207 214 213 214 218
353 335 297 271 253 245 244 242 264 238 258 247 244 244 246 251 245 240 220 217 235 241 234 236 239 236 226 236 240 240 235 224 213 222 221 217 217 210 209 212 217 219 221
358 291 235 289 305 283 227 231 234 252 231 228 244 249 250 251 248 212 213 212 207 237 259 255 249 254 253 256 274 269 254 217 261 238 232 220 220 212 215 217 216 219 223
306 289 283 272 239 237 254 214 271 239 261 220 233 236 235 224 224 211 218 220 214 219 225 252 260 266 272 284 214 189 184 205 217 238 230 232 222 210 217 224 226 232 226
220 233 265 253 247 253 250 234 229 231 262 247 229 239 225 215 216 224 226 218 223 226 231 238 246 255 259 236 204 183 183 192 221 231 217 214 198 194 192 191 189 187 201
276 259 269 282 227 264 276 248 255 219 252 235 273 231 239 231 226 229 241 246 240 233 235 237 243 244 238 198 195 204 201 210 212 220 195 180 171 173 175 181 191 196 202
266 253 263 277 273 233 133 234 214 263 234 191 220 207 253 275 254 247 245 254 259 254 251 247 216 202 188 190 188 212 213 224 209 198 193 188 187 189 192 191 194 197 197
253 265 267 269 282 288 276 266 242 245 262 223 210 167 139 223 235 140 181 199 260 266 263 254 217 186 183 183 195 222 228 229 205 204 201 201 197 196 196 197 198 202 204
276 269 269 284 275 267 274 268 251 239 229 238 199 224 177 149 189 200 73 160 31 338 290 262 199 200 190 198 213 224 237 216 219 213 209 209 207 208 207 208 208 213 223
296 296 308 308 287 280 273 266 252 229 227 218 182 151 133 117 96 135 180 331 83 45 31 21 358 244 201 184 192 225 249 232 227 232 227 227 222 219 221 221 221 222 224
290 277 283 269 263 262 261 274 280 254 225 221 193 166 158 154 169 168 152 189 134 76 54 39 45 34 23 19 240 245 275 286 274 246 237 230 233 241 236 235 233 235 234
285 290 292 286 279 278 288 292 284 254 211 181 162 143 128 145 146 140 130 141 159 142 119 56 30 35 56 52 56 70 51 35 32 63 37 353 250 240 244 243 240 241 240
269 268 270 288 302 309 313 318 333 350 47 92 131 136 142 140 130 147 142 149 136 113 85 78 40 36 37 48 51 52 41 41 41 38 40 36 32 20 324 303 251 251 238
294 288 271 282 314 344 342 348 352 36 60 75 102 95 107 91 79 63 67 76 136 185 209 88 116 26 26 34 17 34 14 15 19 17 9 346 327 309 293 283 292 290 270
308 300 295 287 342 358 5 354 345 36 80 60 70 84 76 72 69 61 64 75 68 132 160 53 47 21 9 16 8 17 5 14 7 357 346 331 322 312 300 290 278 269 269
313 334 333 25 31 39 22 25 359 334 96 91 77 77 70 68 72 66 63 57 58 40 101 117 75 26 10 8 1 0 7 358 347 341 333 322 315 311 303 298 281 274 267
21 33 55 59 41 27 20 65 67 61 58 62 71 81 76 71 65 56 53 53 48 38 41 37 18 5 28 15 348 337 351 346 340 326 317 312 308 300 290 280 270 258 251
27 31 35 37 39 45 47 43 62 63 76 78 61 63 66 68 65 63 59 62 62 59 56 54 360 342 357 10 339 348 348 327 314 308 306 302 302 293 273 267 267 256 249
30 26 25 21 16 14 45 80 84 90 84 75 80 70 66 59 63 71 59 59 75 77 68 71 31 1 339 1 318 311 323 307 320 319 317 325 317 302 293 251 252 242 240
33 28 31 20 16 7 2 46 62 67 71 75 60 59 43 52 54 101 122 120 111 94 91 85 70 268 293 321 299 317 292 317 327 285 327 302 330 8 30 30 43 42 36
39 35 31 25 21 21 39 53 61 65 59 56 55 50 47 50 44 51 71 138 117 122 121 96 183 266 250 296 314 315 286 321 339 323 336 321 1 46 42 32 39 35 25
33 35 31 28 23 27 43 53 59 58 62 61 51 42 48 33 43 45 47 54 47 67 138 163 202 240 294 278 296 298 303 286 277 335 337 327 360 64 32 20 32 27 13
32 29 29 29 34 38 45 51 55 55 59 57 50 52 48 39 43 46 48 50 20 331 281 246 241 251 238 273 267 262 284 293 308 311 170 296 334 68 22 355 22 18 6
34 32 28 26 33 32 32 41 49 51 53 53 34 53 51 39 43 50 45 22 333 313 313 266 259 241 218 227 247 257 18 13 353 26 40 268 6 260 189 26 8 12 7
35 27 29 24 27 29 22 21 24 29 42 42 46 30 22 29 23 26 18 339 354 354 343 14 51 86 107 85 50 22 45 30 351 321 28 353 350 355 345 85 24 9 349